Regional Weather Roundup
Issued by NWS Sterling, VA

Home | Current Version | Previous Version | Graphics & Text | Print | Product List | Glossary On
Versions: 1 2 3 4 5 6 7 8 9 10 11 12 13 14 15 16 17 18 19 20 21 22 23 24 25 26 27
000
ASUS41 KLWX 250310
RWRLWX

REGIONAL WEATHER ROUNDUP
NATIONAL WEATHER SERVICE BALTIMORE MD/WASHINGTON DC
1100 PM EDT TUE MAY 24 2016

Note: "FAIR" indicates few or no clouds below 12,000 feet
with no significant weather and/or obstructions to visibility.
 TC=TEMPERATURE CELSIUS

 * =Non NWS site. Station does not report precipitation (e.g. rain,
    snow, etc.), thunder, or fog.

DCZ001-MDZ009-015-VAZ040>042-051-053>054-250400-
WASHINGTON METRO

CITY           SKY/WX    TMP DP  RH WIND       PRES   REMARKS
WASHINGTON NAT FAIR      67  56  67 S5        30.06R
DULLES         FAIR      61  53  75 CALM      30.07R
ANDREWS AFB    CLEAR     61  54  76 W6        30.05R
QUANTICO       FAIR      64  58  80 NW7       30.07R
COLLEGE PARK*  FAIR      61  52  72 CALM      30.05R
LEESBURG*      FAIR      64  55  72 W5        30.08R
MANASSAS*      FAIR      59  59 100 CALM      30.07R

$$

MDZ006>007-011-014-250400-
BALTIMORE METRO

CITY           SKY/WX    TMP DP  RH WIND       PRES   REMARKS
BWI AIRPORT    CLEAR     62  51  67 W6        30.03R
MD SCIENCE CTR   N/A     72  47  40 MISG      30.02R
MARTIN STATE   CLEAR     72  50  46 CALM      30.03R
ANNAPOLIS      CLEAR     64  56  75 NW3       30.03R
FORT MEADE*    CLEAR     57  54  88 CALM      30.06R

$$

MDZ012-015-019>023-250400-
MARYLAND EASTERN SHORE

CITY           SKY/WX    TMP DP  RH WIND       PRES   REMARKS
OCEAN CITY     CLEAR     68  54  60 W9        30.04R
SALISBURY      CLEAR     64  54  69 SW7       30.05R
BAY BRIDGE AP* CLEAR     72  52  49 W5        30.03R
CAMBRIDGE*     CLEAR     63  55  77 S3        30.05R
EASTON*        CLEAR     68  60  74 SW3       30.07R

$$

MDZ017>025-250400-
SOUTHERN MARYLAND

CITY           SKY/WX    TMP DP  RH WIND       PRES   REMARKS
PATUXENT RIVER CLEAR     68  53  58 SW8       30.05R
ST INIGOES     CLEAR     63  60  90 CALM      30.05R
LEONARDTOWN*   CLEAR     64  52  63 CALM      30.08R

$$

MDZ003>005-250400-
NORTH CENTRAL MARYLAND

CITY           SKY/WX    TMP DP  RH WIND       PRES   REMARKS
FREDERICK*     CLEAR     61  55  82 S5        30.08R
HAGERSTOWN APT CLEAR     71  47  42 SW5       30.07R
WESTMINSTER*   CLEAR     70  64  83 W7        30.06R

$$

MDZ501>502-250400-
WESTERN MARYLAND

CITY           SKY/WX    TMP DP  RH WIND       PRES   REMARKS
OAKLAND*       NOT AVBL
CUMBERLAND*    CLEAR     64  48  55 CALM      30.14R

$$

VAZ025>031-250400-
SHENANDOAH VALLEY

CITY           SKY/WX    TMP DP  RH WIND       PRES   REMARKS
WINCHESTER*    FAIR      63  52  67 CALM      30.09R
FRONT ROYAL*   FAIR      63  54  72 S6        30.08S
LURAY*         FAIR      59  54  82 CALM      30.11S
NEW MARKET*    FAIR      58  53  85 CALM      30.12R
STAUNTON*      FAIR      57  52  83 CALM      30.16R
WAYNESBORO*    FAIR      59  51  73 CALM      30.14R

$$

WVZ021-048>050-054>055-250400-
EASTERN WEST VIRGINIA PANHANDLE

CITY           SKY/WX    TMP DP  RH WIND       PRES   REMARKS
MARTINSBURG    FAIR      62  51  67 SW3       30.07R
PETERSBURG*    FAIR      57  54  89 CALM      30.15R

$$

VAZ036>039-050-250400-
CENTRAL FOOTHILLS

CITY           SKY/WX    TMP DP  RH WIND       PRES   REMARKS
CHARLOTTESVILL FAIR      64  53  67 W3        30.10R
CULPEPER*      FAIR      59  56  90 CALM      30.09R
ORANGE*        FAIR      61  59  94 CALM      30.10S
GORDONSVILLE*  FAIR      61  58  90 CALM      30.08S
WARRENTON*     FAIR      59  54  82 CALM      30.07S

$$

VAZ055>057-250400-
NORTH AND CENTRAL PIEDMONT

CITY           SKY/WX    TMP DP  RH WIND       PRES   REMARKS
FREDERICKSBRG* FAIR      63  59  88 CALM      30.06R
STAFFORD*      FAIR      58  56  94 CALM      30.11R

$$

NCZ024-NYZ072-PAZ021-071-VAZ022-071-250400-
OTHER REGIONAL OBSERVATIONS

CITY           SKY/WX    TMP DP  RH WIND       PRES   REMARKS
NEW YORK CITY  CLOUDY    66  50  56 CALM      30.01S
PHILADELPHIA   CLEAR     73  47  39 N5        29.99R
PITTSBURGH     PTCLDY    68  49  50 SW7       30.10R
ROANOKE        FAIR      65  53  65 CALM      30.16R
RICHMOND       FAIR      65  57  75 S5        30.08R
RALEIGH        PTCLDY    66  56  70 SW5       30.15R

$$

ANZ530>537-250400-
MARINE OBSERVATIONS

STATION/POSITION TIME  TEMP    WIND        PRES
                       AIR SEA DIR/SP/G
                 (UTC) (F)     (DEG/KT/KT) (MB)
THOMAS PT LIGHT  0300   72 64  260/  7/  7 1018.3R
BALT KEY BRIDGE  0200   75                 1015.9R
COVE POINT       0200   74                 1017.7R
LEWISETTA        0200   70 66              1017.2R
SOLOMONS ISLAND  0200   69 62                N/A
PINEY POINT      0200          150/  3/  4   N/A

$$





USA.gov is the U.S. government's official web portal to all federal, state and local government web resources and services.